St. Joseph, KS

8:18 PM CST on December 15, 2019 (GMT -0600)
Rosecrans Memorial

Weather History for KSTJ - October, 2019

Change the Weather History Date:

Wednesday, October 30, 2019

  Actual Average Record
Temperature  
Mean Temperature 32 °F 49 °F  
Max Temperature 35 °F 61 °F 88 °F (1950)
Min Temperature 29 °F 38 °F 11 °F (1925)
Degree Days  
Heating Degree Days 33 16  
Month to date heating degree days 410 322  
Since 1 July heating degree days 415 402  
Cooling Degree Days 0 0  
Month to date cooling degree days 17 18  
Year to date cooling degree days 1466 1217  
Moisture  
Dew Point 27 °F    
Average Humidity 77    
Maximum Humidity 89    
Minimum Humidity 64    
Precipitation  
Precipitation 0.03 in 0.08 in 2.52 in (2013)
Month to date precipitation 3.29 2.74  
Year to date precipitation 36.89 32.46  
Sea Level Pressure  
Sea Level Pressure 30.27 in    
Wind  
Wind Speed 14 mph (NNW)    
Max Wind Speed 22 mph    
Max Gust Speed 30 mph    
Visibility 6 miles    
Events      
T = Trace of Precipitation, MM = Missing Value Source: NWS Daily Summary

Daily Weather History Graph

Daily Weather History Graph

Search for Another Location

Airport or City:

Astronomy

Oct. 30, 2019 Rise Set
Actual Time 7:45 AM CDT 6:20 PM CDT
Civil Twilight 7:17 AM CDT 6:48 PM CDT
Nautical Twilight 6:46 AM CDT 7:19 PM CDT
Astronomical Twilight 6:14 AM CDT 7:51 PM CDT
Moon 10:29 AM CDT (10/30) 8:29 PM CDT (10/30)
Length of Visible Light 11h 30m
Length of Day
10h 34m
Waxing Crescent, 9% of the Moon is Illuminated
Oct 30
Waxing Crescent
Nov 4
First Quarter
Nov 12
Full
Nov 19
Last Quarter
Nov 26
New

Hourly Weather History & Observations

Time (CDT) Temp. Windchill Dew Point Humidity Pressure Visibility Wind Dir Wind Speed Gust Speed Precip Events Conditions
12:53 AM 34.0 °F 29.8 °F 30.9 °F 89% 30.31 in 10.0 mi North 4.6 mph - N/A   Mostly Cloudy
1:53 AM 34.0 °F 27.2 °F 30.9 °F 89% 30.31 in 10.0 mi North 8.1 mph - N/A   Overcast
2:53 AM 34.0 °F 28.0 °F 30.0 °F 85% 30.31 in 10.0 mi North 6.9 mph - N/A   Overcast
3:53 AM 34.0 °F 28.0 °F 30.0 °F 85% 30.30 in 10.0 mi North 6.9 mph - N/A   Overcast
4:53 AM 35.1 °F 27.9 °F 28.9 °F 78% 30.29 in 10.0 mi North 9.2 mph - N/A   Overcast
5:53 AM 34.0 °F 25.5 °F 28.0 °F 79% 30.29 in 10.0 mi North 11.5 mph - N/A   Overcast
6:53 AM 34.0 °F 25.0 °F 28.0 °F 79% 30.30 in 10.0 mi North 12.7 mph - N/A   Overcast
7:53 AM 34.0 °F 23.8 °F 27.0 °F 75% 30.30 in 10.0 mi North 16.1 mph - N/A   Overcast
8:53 AM 34.0 °F 23.0 °F 27.0 °F 75% 30.31 in 10.0 mi NNE 18.4 mph - N/A   Overcast
9:53 AM 34.0 °F 22.7 °F 26.1 °F 73% 30.31 in 10.0 mi NNE 19.6 mph 26.5 mph N/A   Overcast
10:53 AM 35.1 °F 24.8 °F 25.0 °F 67% 30.30 in 10.0 mi North 17.3 mph 26.5 mph N/A   Overcast
11:53 AM 34.0 °F 23.4 °F 24.1 °F 67% 30.30 in 10.0 mi North 17.3 mph 27.6 mph N/A   Overcast
12:53 PM 34.0 °F 23.0 °F 23.0 °F 64% 30.30 in 10.0 mi North 18.4 mph 27.6 mph N/A   Overcast
1:53 PM 33.1 °F 22.2 °F 23.0 °F 66% 30.27 in 10.0 mi NNE 17.3 mph - N/A   Overcast
2:53 PM 33.1 °F 22.6 °F 24.1 °F 70% 30.25 in 10.0 mi North 16.1 mph 27.6 mph N/A   Overcast
3:53 PM 33.1 °F 22.6 °F 25.0 °F 72% 30.25 in 4.0 mi North 16.1 mph - N/A   Haze
4:53 PM 32.0 °F 22.5 °F 27.0 °F 82% 30.24 in 3.0 mi North 12.7 mph - N/A   Haze
5:49 PM 30.2 °F 20.2 °F 26.6 °F 86% 30.22 in 2.0 mi NNW 12.7 mph - 0.01 in   Overcast
5:53 PM 30.9 °F 21.7 °F 27.0 °F 85% 30.24 in 2.0 mi NNW 11.5 mph - 0.01 in   Overcast
6:07 PM 30.9 °F 21.2 °F 27.0 °F 85% 30.22 in 1.8 mi NNW 12.7 mph - N/A   Overcast
6:36 PM 30.0 °F 20.0 °F 27.0 °F 88% 30.22 in 2.5 mi NNW 12.7 mph - N/A   Overcast
6:53 PM 30.0 °F 20.0 °F 27.0 °F 88% 30.25 in 4.0 mi NNW 12.7 mph - N/A   Overcast
7:53 PM 30.0 °F 20.0 °F 27.0 °F 88% 30.25 in 4.0 mi NNW 12.7 mph - N/A   Overcast
8:11 PM 30.0 °F 20.0 °F 27.0 °F 88% 30.23 in 2.0 mi NNW 12.7 mph - 0.01 in   Overcast
8:53 PM 30.0 °F 21.1 °F 27.0 °F 88% 30.25 in 2.0 mi NW 10.4 mph - 0.01 in   Overcast
9:08 PM 30.0 °F 20.5 °F 27.0 °F 88% 30.23 in 1.8 mi NW 11.5 mph - N/A   Overcast
9:22 PM 30.0 °F 20.0 °F 27.0 °F 88% 30.23 in 2.5 mi NW 12.7 mph - N/A   Overcast
9:28 PM 30.0 °F 19.5 °F 27.0 °F 88% 30.23 in 3.0 mi NW 13.8 mph - N/A   Overcast
9:40 PM 30.0 °F 19.1 °F 27.0 °F 88% 30.23 in 2.0 mi NW 15.0 mph - N/A   Overcast
9:53 PM 30.0 °F 19.5 °F 27.0 °F 88% 30.27 in 1.8 mi NW 13.8 mph - N/A   Overcast
10:08 PM 30.0 °F 19.1 °F 26.1 °F 85% 30.24 in 2.0 mi NW 15.0 mph - 0.01 in   Overcast
10:53 PM 28.9 °F 18.6 °F 26.1 °F 89% 30.28 in 2.5 mi NNW 12.7 mph - 0.01 in   Overcast
11:16 PM 28.9 °F 19.2 °F 26.1 °F 89% 30.25 in 3.0 mi NW 11.5 mph - N/A   Overcast
11:53 PM 28.9 °F 17.3 °F 26.1 °F 89% 30.27 in 2.5 mi NW 16.1 mph - N/A   Overcast